Вернуться в каталог

FENGYUN 1C DEB

АктивенPO
NORAD 29865·DEBRIS·🇨🇳 China

Запущен May 10, 1999 с Taiyuan Satellite Launch Center

Loading…

Ближайшие Пролёты (ближайшие 24 часа)

TLE

СвежийSource: Space-Track

Эпоха: Sep 14, 2026, 14:30 UTC

1 29865U 99025FK  26257.60446183  .00005920  00000-0  61425-3 0  9996
2 29865  98.9298 206.0975 0108766 346.3964 189.4131 14.86115730 48510

Отслеживайте FENGYUN 1C DEB в реальном времени с AllMySat

Download on the App Store